Weather in Nikko

Japan     36°44′58″N   139°36′40″E
temp.,
°C
wind,
m/s
gust,
m/s
humid.,
%
clouds,
%
prec.,
mm/h
press.,
hPa
HPBL,
m
28 november, sun
sun2800:00−4wnw238437 0.1 102849
03:00−3nw4107741 0.5 1028835
06:00−4nw348220 0.0 103189
09:00+1nw285840 0.1 10301429
12:00+3nw274932 0.1 10301675
15:00+2nw135428 0.1 10301235
18:00−4nw32837 0.0 103438
21:00−5wnw22703 0.0 103522
29 november, mon
mon2900:00−5wnw22610 0.0 103519
03:00−5wnw22453 0.0 103416
06:00−4wnw22425 0.0 103320
09:00+2s2234100 0.0 1030261
12:00+6sse1237100 0.0 1027523
15:00+4se11576 0.0 1027162
18:00−2nw227662 0.0 103012
21:00−1wnw2162100 0.0 103011
30 november, tue
tue3000:00−1wnw2247100 0.0 102913
03:00−1wnw224028 0.0 102813
06:00−2wnw21450 0.0 102711
09:00+5s22450 0.0 1024247
12:00+7sse235160 0.0 1020573
15:00+4s2463100 0.0 1020347
18:00+3s248992 0.0 1019117
21:00+3sw3596100 0.1 1017139
1 december, wed
wed100:00+5s51698100 0.3 10121251
03:00+7sse62099100 3.6 10061709
06:00+8s51899100 8.6 10001875
09:00+8wsw2299100 21.9 99794
12:00+9w313683 0.9 9961661
15:00+5nnw347414 0.9 998642
18:00−2nw358539 0.1 1005231
21:00−2w388139 0.5 1006675
2 december, thu
thu200:00−2wnw268345 0.7 1009776
03:00−3wnw3127639 1.6 10111116
06:00−4wnw4107316 0.3 1014783
09:000w14510 0.3 1015566
12:00+4s23410 0.0 1013934
15:00+3sse23490 0.0 1015682
18:00−2wsw226929 0.0 101923
21:00+1ssw238584 0.0 1018120